| time (UTC) | temp F | wind direction | speed knots | gust knots | rain 1hr in | rain 24hr in | rain mn in | humidity % | barometer mb |
| 20260510203059 | 75 | 352 | 3.5 | 13.0 | 0.00 | 0.00 | 0.00 | 54 | 1014.2 |
| 20260510201558 | 75 | 296 | 8.7 | 14.8 | 0.00 | 0.00 | 0.00 | 52 | 1014.3 |
| 20260510200125 | 74 | 335 | 7.8 | 13.0 | 0.00 | 0.00 | 0.00 | 55 | 1014.2 |
| 20260510194603 | 75 | 322 | 7.8 | 16.5 | 0.00 | 0.00 | 0.00 | 55 | 1014.3 |
| 20260510193105 | 75 | 341 | 11.3 | 15.6 | 0.00 | 0.00 | 0.00 | 54 | 1014.4 |
| 20260510191605 | 75 | 349 | 10.4 | 15.6 | 0.00 | 0.00 | 0.00 | 54 | 1014.5 |
| 20260510190100 | 75 | 304 | 2.6 | 9.6 | 0.00 | 0.00 | 0.00 | 57 | 1014.3 |
| 20260510184602 | 75 | 335 | 7.0 | 9.6 | 0.00 | 0.00 | 0.00 | 54 | 1014.3 |
| 20260510183100 | 76 | 270 | 9.6 | 13.9 | 0.00 | 0.00 | 0.00 | 51 | 1014.1 |
| 20260510181601 | 75 | 287 | 7.0 | 10.4 | 0.00 | 0.00 | 0.00 | 55 | 1014.2 |
| 20260510180058 | 75 | 307 | 2.6 | 8.7 | 0.00 | 0.00 | 0.00 | 53 | 1014.1 |
| 20260510174555 | 74 | 339 | 6.1 | 10.4 | 0.00 | 0.00 | 0.00 | 56 | 1014.3 |
| 20260510173056 | 74 | 352 | 4.3 | 9.6 | 0.00 | 0.00 | 0.00 | 53 | 1014.3 |
| 20260510171556 | 74 | 309 | 5.2 | 15.6 | 0.00 | 0.00 | 0.00 | 51 | 1014.3 |
| 20260510170058 | 75 | 330 | 3.5 | 10.4 | 0.00 | 0.00 | 0.00 | 54 | 1014.2 |
| 20260510164558 | 74 | 300 | 3.5 | 9.6 | 0.00 | 0.00 | 0.00 | 53 | 1014.2 |
| 20260510163056 | 74 | 311 | 6.1 | 10.4 | 0.00 | 0.00 | 0.00 | 53 | 1014.1 |
| 20260510161558 | 75 | 352 | 9.6 | 13.0 | 0.00 | 0.00 | 0.00 | 52 | 1014.3 |
| 20260510160101 | 74 | 312 | 5.2 | 11.3 | 0.00 | 0.00 | 0.00 | 53 | 1014.3 |
| 20260510154557 | 74 | 269 | 2.6 | 8.7 | 0.00 | 0.00 | 0.00 | 54 | 1014.2 |
| 20260510153059 | 73 | 237 | 2.6 | 10.4 | 0.00 | 0.00 | 0.00 | 56 | 1014.3 |
| 20260510151559 | 72 | 235 | 2.6 | 7.8 | 0.00 | 0.00 | 0.00 | 57 | 1014.4 |
| 20260510150059 | 71 | 279 | 2.6 | 11.3 | 0.00 | 0.00 | 0.00 | 59 | 1014.3 |
| 20260510144555 | 70 | 270 | 2.6 | 8.7 | 0.00 | 0.00 | 0.00 | 58 | 1014.6 |
| 20260510143056 | 69 | 270 | 5.2 | 12.2 | 0.00 | 0.00 | 0.00 | 59 | 1014.5 |
| 20260510141600 | 68 | 322 | 4.3 | 9.6 | 0.00 | 0.00 | 0.00 | 63 | 1014.6 |
| 20260510140058 | 68 | 219 | 2.6 | 8.7 | 0.00 | 0.00 | 0.00 | 66 | 1014.8 |
| 20260510134604 | 66 | 0 | 2.6 | 8.7 | 0.00 | 0.00 | 0.00 | 70 | 1014.7 |
| 20260510133055 | 64 | 251 | 4.3 | 13.0 | 0.00 | 0.00 | 0.00 | 77 | 1014.6 |
| 20260510131557 | 61 | 0 | 2.6 | 6.1 | 0.00 | 0.00 | 0.00 | 88 | 1014.4 |
| 20260510130148 | 59 | 302 | 0.9 | 3.5 | 0.00 | 0.00 | 0.00 | 91 | 1014.7 |
| 20260510124601 | 58 | 239 | 0.0 | 2.6 | 0.00 | 0.00 | 0.00 | 92 | 1014.5 |
| 20260510123102 | 56 | 65 | 0.0 | 2.6 | 0.00 | 0.00 | 0.00 | 92 | 1014.5 |
| 20260510121557 | 55 | 77 | 0.0 | 2.6 | 0.00 | 0.00 | 0.00 | 92 | 1014.4 |
| 20260510120057 | 53 | 96 | 0.9 | 2.6 | 0.00 | 0.00 | 0.00 | 92 | 1014.3 |
| 20260510114554 | 52 | 80 | 0.9 | 3.5 | 0.00 | 0.00 | 0.00 | 92 | 1014.2 |
| 20260510113057 | 51 | 85 | 0.9 | 2.6 | 0.00 | 0.00 | 0.00 | 92 | 1014.1 |
| 20260510111557 | 51 | 0 | 1.7 | 3.5 | 0.00 | 0.00 | 0.00 | 92 | 1013.7 |
| 20260510110054 | 50 | 98 | 0.9 | 3.5 | 0.00 | 0.00 | 0.00 | 92 | 1013.5 |
| 20260510104555 | 51 | 0 | 0.0 | 0.9 | 0.00 | 0.00 | 0.00 | 91 | 1013.2 |
| 20260510103101 | 51 | 90 | 2.6 | 3.5 | 0.00 | 0.00 | 0.00 | 92 | 1013.2 |
| 20260510101607 | 51 | 96 | 1.7 | 5.2 | 0.00 | 0.00 | 0.00 | 91 | 1013.2 |
| 20260510100057 | 52 | 85 | 0.9 | 5.2 | 0.00 | 0.00 | 0.00 | 91 | 1012.9 |
| 20260510094556 | 52 | 85 | 0.9 | 5.2 | 0.00 | 0.00 | 0.00 | 91 | 1012.8 |
| 20260510093054 | 52 | 101 | 1.7 | 5.2 | 0.00 | 0.00 | 0.00 | 91 | 1012.6 |
| 20260510091554 | 52 | 90 | 3.5 | 5.2 | 0.00 | 0.00 | 0.00 | 91 | 1012.5 |
| 20260510090113 | 52 | 87 | 1.7 | 5.2 | 0.00 | 0.00 | 0.00 | 91 | 1012.3 |
| 20260510084558 | 52 | 60 | 2.6 | 3.5 | 0.00 | 0.00 | 0.00 | 91 | 1012.2 |
| 20260510083054 | 52 | 74 | 0.9 | 3.5 | 0.00 | 0.00 | 0.00 | 91 | 1012.2 |
| 20260510081559 | 52 | 74 | 2.6 | 6.1 | 0.00 | 0.00 | 0.00 | 91 | 1012.1 |
| 20260510080056 | 51 | 97 | 0.9 | 5.2 | 0.00 | 0.00 | 0.00 | 90 | 1011.9 |
| 20260510074554 | 51 | 100 | 1.7 | 2.6 | 0.00 | 0.00 | 0.00 | 90 | 1011.8 |
| 20260510073104 | 52 | 0 | 0.9 | 5.2 | 0.00 | 0.00 | 0.00 | 90 | 1011.8 |
| 20260510071558 | 52 | 120 | 1.7 | 5.2 | 0.00 | 0.00 | 0.00 | 90 | 1011.9 |
| 20260510070059 | 52 | 0 | 0.9 | 3.5 | 0.00 | 0.00 | 0.00 | 90 | 1011.9 |
| 20260510064556 | 53 | 117 | 2.6 | 5.2 | 0.00 | 0.00 | 0.00 | 90 | 1011.7 |
| 20260510063105 | 53 | 102 | 0.9 | 5.2 | 0.00 | 0.00 | 0.00 | 90 | 1011.9 |
| 20260510061603 | 52 | 107 | 2.6 | 3.5 | 0.00 | 0.00 | 0.00 | 89 | 1011.9 |
| 20260510060058 | 53 | 83 | 0.0 | 1.7 | 0.00 | 0.00 | 0.00 | 89 | 1011.9 |
| 20260510054606 | 53 | 0 | 0.0 | 1.7 | 0.00 | 0.00 | 0.00 | 89 | 1012.0 |
| 20260510053059 | 53 | 111 | 0.9 | 5.2 | 0.00 | 0.00 | 0.00 | 88 | 1012.0 |
| 20260510051601 | 53 | 0 | 0.0 | 2.6 | 0.00 | 0.00 | 0.00 | 88 | 1012.2 |
| 20260510044556 | 54 | 81 | 0.9 | 2.6 | 0.00 | 0.00 | 0.00 | 87 | 1012.4 |
| 20260510043058 | 54 | 0 | 0.0 | 1.7 | 0.00 | 0.00 | 0.00 | 86 | 1012.4 |
| 20260510041635 | 55 | 0 | 0.0 | 1.7 | 0.00 | 0.00 | 0.00 | 86 | 1012.4 |
| 20260510034559 | 56 | 0 | 0.0 | 0.0 | 0.00 | 0.00 | 0.00 | 84 | 1012.3 |
| 20260510033113 | 56 | 0 | 0.0 | 2.6 | 0.00 | 0.00 | 0.00 | 83 | 1012.1 |
| 20260510031602 | 57 | 174 | 0.0 | 1.7 | 0.00 | 0.00 | 0.00 | 81 | 1011.9 |
| 20260510030058 | 58 | 0 | 0.0 | 0.0 | 0.00 | 0.00 | 0.00 | 80 | 1012.1 |
| 20260510024610 | 58 | 0 | 0.0 | 2.6 | 0.00 | 0.00 | 0.00 | 79 | 1011.7 |
| 20260510023101 | 59 | 0 | 0.0 | 2.6 | 0.00 | 0.00 | 0.00 | 78 | 1011.5 |
| 20260510021557 | 60 | 199 | 0.0 | 4.3 | 0.00 | 0.00 | 0.00 | 76 | 1011.2 |
| 20260510020101 | 60 | 205 | 0.9 | 4.3 | 0.00 | 0.00 | 0.00 | 74 | 1011.0 |
| 20260510014614 | 61 | 195 | 0.9 | 4.3 | 0.00 | 0.00 | 0.00 | 72 | 1010.9 |
| 20260510013104 | 62 | 200 | 0.9 | 3.5 | 0.00 | 0.00 | 0.00 | 70 | 1010.8 |
| 20260510011556 | 64 | 211 | 0.0 | 3.5 | 0.00 | 0.00 | 0.00 | 67 | 1010.6 |
| 20260510010056 | 65 | 240 | 0.0 | 3.5 | 0.00 | 0.00 | 0.00 | 65 | 1010.4 |
| 20260510004605 | 66 | 224 | 1.7 | 3.5 | 0.00 | 0.00 | 0.00 | 64 | 1010.2 |
| 20260510003054 | 67 | 233 | 1.7 | 7.0 | 0.00 | 0.00 | 0.00 | 62 | 1010.0 |
| 20260510001558 | 67 | 198 | 2.6 | 8.7 | 0.00 | 0.00 | 0.00 | 61 | 1009.7 |
| 20260510000057 | 68 | 229 | 4.3 | 8.7 | 0.00 | 0.00 | 0.00 | 59 | 1009.8 |
| 20260509234557 | 69 | 252 | 2.6 | 8.7 | 0.00 | 0.00 | 0.00 | 59 | 1009.8 |
| 20260509233054 | 69 | 263 | 7.0 | 13.0 | 0.00 | 0.00 | 0.00 | 58 | 1009.6 |
| 20260509231607 | 70 | 230 | 5.2 | 11.3 | 0.00 | 0.00 | 0.00 | 58 | 1009.6 |
| 20260509230057 | 70 | 266 | 4.3 | 13.0 | 0.00 | 0.00 | 0.00 | 56 | 1009.5 |
| 20260509224557 | 70 | 241 | 6.1 | 13.0 | 0.00 | 0.00 | 0.00 | 57 | 1009.6 |
| 20260509223055 | 71 | 233 | 5.2 | 12.2 | 0.00 | 0.00 | 0.00 | 57 | 1009.3 |
| 20260509221555 | 70 | 216 | 2.6 | 9.6 | 0.00 | 0.00 | 0.00 | 58 | 1009.6 |
| 20260509220059 | 70 | 264 | 3.5 | 13.0 | 0.00 | 0.00 | 0.00 | 57 | 1009.6 |
| 20260509214558 | 71 | 269 | 2.6 | 14.8 | 0.00 | 0.00 | 0.00 | 55 | 1009.7 |
| 20260509213059 | 71 | 198 | 3.5 | 16.5 | 0.00 | 0.00 | 0.00 | 55 | 1009.8 |
| 20260509211600 | 70 | 243 | 4.3 | 11.3 | 0.00 | 0.00 | 0.00 | 57 | 1009.7 |
| 20260509210107 | 70 | 251 | 5.2 | 15.6 | 0.00 | 0.00 | 0.00 | 57 | 1009.7 |
| 20260509204554 | 69 | 290 | 5.2 | 10.4 | 0.00 | 0.00 | 0.00 | 59 | 1009.7 |